| time (UTC) | temp F | wind direction | speed MPH | gust MPH | rain 1hr in | rain 24hr in | rain mn in | humidity % | barometer mb |
| 20260503225522 | 70 | 171 | 4.0 | 15.0 | 0.00 | 0.00 | 0.00 | 38 | 1011.2 |
| 20260503224522 | 70 | 181 | 5.0 | 14.0 | 0.00 | 0.00 | 0.00 | 38 | 1011.4 |
| 20260503223522 | 70 | 171 | 3.0 | 13.0 | 0.00 | 0.00 | 0.00 | 40 | 1011.4 |
| 20260503222522 | 70 | 187 | 5.0 | 15.0 | 0.00 | 0.00 | 0.00 | 39 | 1011.7 |
| 20260503221517 | 70 | 177 | 5.0 | 13.0 | 0.00 | 0.00 | 0.00 | 38 | 1011.7 |
| 20260503220516 | 71 | 185 | 5.0 | 14.0 | 0.00 | 0.00 | 0.00 | 39 | 1011.8 |
| 20260503215521 | 71 | 179 | 4.0 | 14.0 | 0.00 | 0.00 | 0.00 | 39 | 1012.0 |
| 20260503214522 | 71 | 187 | 5.0 | 16.0 | 0.00 | 0.00 | 0.00 | 37 | 1012.0 |
| 20260503213522 | 71 | 187 | 5.0 | 14.0 | 0.00 | 0.00 | 0.00 | 39 | 1012.2 |
| 20260503212522 | 70 | 166 | 4.0 | 13.0 | 0.00 | 0.00 | 0.00 | 38 | 1012.5 |
| 20260503211542 | 71 | 184 | 4.0 | 14.0 | 0.00 | 0.00 | 0.00 | 38 | 1012.9 |
| 20260503210517 | 70 | 168 | 4.0 | 15.0 | 0.00 | 0.00 | 0.00 | 39 | 1013.2 |
| 20260503205521 | 70 | 199 | 7.0 | 18.0 | 0.00 | 0.00 | 0.00 | 37 | 1013.5 |
| 20260503204522 | 70 | 174 | 3.0 | 14.0 | 0.00 | 0.00 | 0.00 | 40 | 1013.6 |
| 20260503203522 | 70 | 189 | 4.0 | 13.0 | 0.00 | 0.00 | 0.00 | 40 | 1013.8 |
| 20260503202602 | 70 | 189 | 4.0 | 11.0 | 0.00 | 0.00 | 0.00 | 38 | 1014.1 |
| 20260503201522 | 71 | 212 | 7.0 | 16.0 | 0.00 | 0.01 | 0.00 | 40 | 1014.6 |
| 20260503200522 | 69 | 176 | 5.0 | 15.0 | 0.00 | 0.01 | 0.00 | 39 | 1014.8 |
| 20260503195517 | 70 | 199 | 6.0 | 18.0 | 0.00 | 0.01 | 0.00 | 38 | 1015.2 |
| 20260503194522 | 70 | 214 | 6.0 | 14.0 | 0.00 | 0.03 | 0.00 | 37 | 1015.5 |
| 20260503193522 | 69 | 225 | 7.0 | 15.0 | 0.00 | 0.03 | 0.00 | 38 | 1015.7 |
| 20260503192542 | 69 | 187 | 5.0 | 13.0 | 0.00 | 0.03 | 0.00 | 40 | 1015.8 |
| 20260503191542 | 69 | 194 | 7.0 | 14.0 | 0.00 | 0.03 | 0.00 | 38 | 1016.2 |
| 20260503190522 | 68 | 199 | 7.0 | 16.0 | 0.00 | 0.03 | 0.00 | 40 | 1016.4 |
| 20260503185537 | 68 | 178 | 4.0 | 12.0 | 0.00 | 0.03 | 0.00 | 43 | 1016.5 |
| 20260503184517 | 68 | 186 | 6.0 | 14.0 | 0.00 | 0.03 | 0.00 | 42 | 1016.7 |
| 20260503183521 | 68 | 197 | 4.0 | 12.0 | 0.00 | 0.03 | 0.00 | 41 | 1016.9 |
| 20260503182542 | 68 | 198 | 6.0 | 14.0 | 0.00 | 0.03 | 0.00 | 42 | 1017.1 |
| 20260503181521 | 68 | 228 | 6.0 | 13.0 | 0.00 | 0.03 | 0.00 | 44 | 1017.4 |
| 20260503180521 | 67 | 198 | 4.0 | 13.0 | 0.00 | 0.03 | 0.00 | 47 | 1017.5 |
| 20260503175522 | 66 | 186 | 5.0 | 14.0 | 0.00 | 0.03 | 0.00 | 48 | 1017.7 |
| 20260503174516 | 65 | 177 | 4.0 | 12.0 | 0.00 | 0.03 | 0.00 | 46 | 1018.0 |
| 20260503173542 | 64 | 173 | 4.0 | 12.0 | 0.00 | 0.03 | 0.00 | 48 | 1018.1 |
| 20260503172522 | 64 | 177 | 5.0 | 16.0 | 0.00 | 0.03 | 0.00 | 45 | 1018.4 |
| 20260503171522 | 64 | 185 | 5.0 | 13.0 | 0.00 | 0.03 | 0.00 | 48 | 1018.7 |
| 20260503170521 | 63 | 168 | 4.0 | 14.0 | 0.00 | 0.03 | 0.00 | 47 | 1019.0 |
| 20260503150522 | 57 | 183 | 5.0 | 12.0 | 0.00 | 0.03 | 0.00 | 57 | 1019.7 |
| 20260503130521 | 49 | 182 | 1.0 | 6.0 | 0.00 | 0.03 | 0.00 | 84 | 1020.0 |
| 20260503110516 | 41 | 0.0 | 0.0 | 0.00 | 0.03 | 0.00 | 92 | 1019.7 | |
| 20260503081521 | 41 | 0.0 | 0.0 | 0.00 | 0.03 | 0.00 | 92 | 1019.6 | |
| 20260503080521 | 41 | 0.0 | 0.0 | 0.00 | 0.03 | 0.00 | 92 | 1019.5 | |
| 20260503072521 | 42 | 0.0 | 0.0 | 0.00 | 0.03 | 0.00 | 92 | 1019.8 | |
| 20260503071521 | 42 | 0.0 | 0.0 | 0.00 | 0.03 | 0.00 | 92 | 1019.9 | |
| 20260503070522 | 43 | 0.0 | 0.0 | 0.00 | 0.03 | 0.00 | 92 | 1019.8 | |
| 20260503054521 | 43 | 0.0 | 0.0 | 0.00 | 0.03 | 0.00 | 91 | 1020.0 | |
| 20260503053521 | 44 | 0.0 | 0.0 | 0.00 | 0.03 | 0.00 | 91 | 1020.0 | |
| 20260503052516 | 44 | 0.0 | 0.0 | 0.00 | 0.03 | 0.00 | 91 | 1020.0 | |
| 20260503051521 | 43 | 0.0 | 0.0 | 0.00 | 0.03 | 0.00 | 91 | 1020.0 | |
| 20260503050541 | 43 | 0.0 | 0.0 | 0.00 | 0.03 | 0.00 | 90 | 1019.9 | |
| 20260503045542 | 43 | 0.0 | 0.0 | 0.00 | 0.03 | 0.03 | 90 | 1020.0 | |
| 20260503044522 | 43 | 0.0 | 0.0 | 0.00 | 0.03 | 0.03 | 90 | 1019.8 | |
| 20260503043542 | 44 | 0.0 | 0.0 | 0.00 | 0.03 | 0.03 | 90 | 1019.7 | |
| 20260503042522 | 44 | 0.0 | 0.0 | 0.00 | 0.03 | 0.03 | 89 | 1019.6 | |
| 20260503041522 | 44 | 0.0 | 0.0 | 0.00 | 0.03 | 0.03 | 88 | 1019.6 | |
| 20260503040517 | 45 | 0.0 | 0.0 | 0.00 | 0.03 | 0.03 | 88 | 1019.6 | |
| 20260503035517 | 45 | 0.0 | 0.0 | 0.00 | 0.03 | 0.03 | 87 | 1019.6 | |
| 20260503034522 | 46 | 0.0 | 0.0 | 0.00 | 0.03 | 0.03 | 85 | 1019.7 | |
| 20260503033522 | 47 | 0.0 | 0.0 | 0.00 | 0.03 | 0.03 | 85 | 1019.8 | |
| 20260503032522 | 47 | 0.0 | 0.0 | 0.00 | 0.03 | 0.03 | 85 | 1019.7 | |
| 20260503031522 | 47 | 0.0 | 0.0 | 0.00 | 0.03 | 0.03 | 84 | 1019.7 | |
| 20260503030522 | 47 | 0.0 | 0.0 | 0.00 | 0.03 | 0.03 | 84 | 1019.6 | |
| 20260503025517 | 47 | 0.0 | 0.0 | 0.00 | 0.03 | 0.03 | 83 | 1019.6 | |
| 20260503024520 | 48 | 0.0 | 0.0 | 0.00 | 0.03 | 0.03 | 84 | 1019.7 | |
| 20260503023522 | 48 | 0.0 | 0.0 | 0.00 | 0.03 | 0.03 | 82 | 1019.5 | |
| 20260503022522 | 49 | 0.0 | 0.0 | 0.00 | 0.03 | 0.03 | 78 | 1019.5 | |
| 20260503021522 | 48 | 0.0 | 0.0 | 0.00 | 0.03 | 0.03 | 81 | 1019.3 | |
| 20260503020520 | 48 | 0.0 | 0.0 | 0.00 | 0.03 | 0.03 | 82 | 1019.3 | |
| 20260503015522 | 49 | 0.0 | 0.0 | 0.00 | 0.03 | 0.03 | 80 | 1019.2 | |
| 20260503014537 | 50 | 0.0 | 0.0 | 0.00 | 0.03 | 0.03 | 79 | 1019.0 | |
| 20260503013522 | 50 | 0.0 | 0.0 | 0.00 | 0.03 | 0.03 | 77 | 1019.0 | |
| 20260503012522 | 50 | 0.0 | 0.0 | 0.00 | 0.03 | 0.03 | 77 | 1019.0 | |
| 20260503011542 | 51 | 0.0 | 0.0 | 0.00 | 0.03 | 0.03 | 76 | 1018.8 | |
| 20260503010542 | 52 | 0.0 | 0.0 | 0.00 | 0.03 | 0.03 | 74 | 1018.7 | |
| 20260503005522 | 52 | 0.0 | 0.0 | 0.00 | 0.03 | 0.03 | 71 | 1018.7 | |
| 20260503004522 | 53 | 0.0 | 0.0 | 0.00 | 0.03 | 0.03 | 70 | 1018.6 | |
| 20260503003517 | 53 | 0.0 | 0.0 | 0.00 | 0.03 | 0.03 | 69 | 1018.6 | |
| 20260503002522 | 54 | 0.0 | 0.0 | 0.00 | 0.03 | 0.03 | 68 | 1018.5 | |
| 20260503001522 | 55 | 0.0 | 1.0 | 0.00 | 0.03 | 0.03 | 67 | 1018.5 | |
| 20260503000522 | 54 | 299 | 0.0 | 1.0 | 0.00 | 0.03 | 0.03 | 67 | 1018.5 |
| 20260502235523 | 54 | 0.0 | 0.0 | 0.00 | 0.03 | 0.03 | 63 | 1018.3 | |
| 20260502234522 | 55 | 0.0 | 0.0 | 0.00 | 0.03 | 0.03 | 65 | 1018.4 | |
| 20260502233537 | 57 | 299 | 0.0 | 3.0 | 0.00 | 0.03 | 0.03 | 59 | 1018.4 |
| 20260502232516 | 58 | 301 | 0.0 | 3.0 | 0.00 | 0.03 | 0.03 | 51 | 1018.4 |
| 20260502231522 | 58 | 300 | 1.0 | 3.0 | 0.00 | 0.03 | 0.03 | 53 | 1018.4 |
| 20260502230542 | 58 | 299 | 1.0 | 5.0 | 0.00 | 0.03 | 0.03 | 54 | 1018.4 |